This is the latest recevied weather packets stored in our database for station/object s59zo-6. If no packets are shown the sender has not sent any weather packets the latest 10 day(s).
| Time | Temp. | Humidity | Pressure | Rain* | Wind** | Luminosity | Snow |
|---|---|---|---|---|---|---|---|
| 1788464705 | 19.44° C | 68% | 1019.2 hPa | 0 mm | - | - | - |
| 1788464405 | 20° C | 67% | 1019.1 hPa | 0 mm | - | - | - |
| 1788464104 | 20° C | 67% | 1019.2 hPa | 0 mm | - | - | - |
| 1788463804 | 20° C | 66% | 1019.2 hPa | 0 mm | - | - | - |
| 1788463504 | 20.56° C | 66% | 1019.1 hPa | 0 mm | - | - | - |
| 1788463204 | 20.56° C | 66% | 1019.1 hPa | 0 mm | - | - | - |
| 1788462905 | 20.56° C | 66% | 1019 hPa | 0 mm | - | - | - |
| 1788462605 | 20.56° C | 65% | 1019 hPa | 0 mm | - | - | - |
| 1788462305 | 20.56° C | 65% | 1019 hPa | 0 mm | - | - | - |
| 1788462005 | 21.11° C | 64% | 1019 hPa | 0 mm | - | - | - |
| 1788461704 | 21.67° C | 64% | 1019.1 hPa | 0 mm | - | - | - |
| 1788461404 | 21.67° C | 63% | 1019 hPa | 0 mm | - | - | - |
| 1788461104 | 21.67° C | 62% | 1018.9 hPa | 0 mm | - | - | - |
| 1788460804 | 22.22° C | 62% | 1018.8 hPa | 0 mm | - | - | - |
| 1788460504 | 22.22° C | 62% | 1019 hPa | 0 mm | - | - | - |
| 1788460205 | 22.22° C | 62% | 1019 hPa | 0 mm | - | - | - |
| 1788459904 | 22.78° C | 58% | 1018.9 hPa | 0 mm | - | - | - |
| 1788459605 | 22.78° C | 56% | 1018.8 hPa | 0 mm | - | - | - |
| 1788459304 | 23.33° C | 53% | 1018.8 hPa | 0 mm | - | - | - |
| 1788459005 | 23.33° C | 53% | 1018.8 hPa | 0 mm | - | - | - |
| 1788458705 | 24.44° C | 52% | 1018.5 hPa | 0 mm | - | - | - |
| 1788458405 | 24.44° C | 52% | 1018.6 hPa | 0 mm | - | - | - |
| 1788458104 | 24.44° C | 52% | 1018.4 hPa | 0 mm | - | - | - |
| 1788457805 | 24.44° C | 52% | 1018.6 hPa | 0 mm | - | - | - |
| 1788457504 | 25° C | 52% | 1018.6 hPa | 0 mm | - | - | - |
* Rain latest hour (hover to see other rain measurements)
** Current wind speed in m/s (hover to see current wind gust speed)